This is the latest recevied weather packets stored in our database for station/object YO8SHU-10. If no packets are shown the sender has not sent any weather packets the latest 10 day(s).
| Time | Temp. | Humidity | Pressure | Rain* | Wind** | Luminosity | Snow |
|---|---|---|---|---|---|---|---|
| 1787873411 | 12.78° C | 100% | 1028.4 hPa | - | - | - | - |
| 1787871610 | 13.33° C | 100% | 1028.4 hPa | - | - | - | - |
| 1787869810 | 13.33° C | 100% | 1028.6 hPa | - | - | - | - |
| 1787868010 | 13.89° C | 100% | 1028.8 hPa | - | - | - | - |
| 1787866210 | 13.89° C | 100% | 1028.6 hPa | - | - | - | - |
| 1787864410 | 14.44° C | 100% | 1028.7 hPa | - | - | - | - |
| 1787862610 | 14.44° C | 100% | 1028.4 hPa | - | - | - | - |
| 1787860810 | 15° C | 100% | 1028.2 hPa | - | - | - | - |
| 1787859010 | 15.56° C | 100% | 1027.7 hPa | - | - | - | - |
| 1787857214 | 15.56° C | 100% | 1027.8 hPa | - | - | - | - |
| 1787855410 | 16.11° C | 100% | 1027.7 hPa | - | - | - | - |
| 1787853609 | 16.11° C | 100% | 1027.6 hPa | - | - | - | - |
| 1787851809 | 16.67° C | 100% | 1027.5 hPa | - | - | - | - |
| 1787850009 | 16.67° C | 100% | 1027.3 hPa | - | - | - | - |
| 1787848209 | 17.22° C | 100% | 1027.2 hPa | - | - | - | - |
| 1787846409 | 16.67° C | 100% | 1027.1 hPa | - | - | - | - |
| 1787844609 | 17.22° C | 100% | 1027 hPa | - | - | - | - |
| 1787842809 | 17.22° C | 100% | 1026.9 hPa | - | - | - | - |
| 1787841009 | 17.22° C | 100% | 1026.8 hPa | - | - | - | - |
| 1787839209 | 16.67° C | 100% | 1026.8 hPa | - | - | - | - |
| 1787837408 | 16.67° C | 100% | 1026.8 hPa | - | - | - | - |
| 1787835608 | 16.67° C | 100% | 1026.8 hPa | - | - | - | - |
| 1787833808 | 17.78° C | 100% | 1026.8 hPa | - | - | - | - |
| 1787832008 | 19.44° C | 100% | 1026.5 hPa | - | - | - | - |
| 1787830209 | 18.89° C | 100% | 1026.5 hPa | - | - | - | - |
* Rain since midnight (hover to see other rain measurements)
** Current wind speed in m/s (hover to see current wind gust speed)